Year,Month,Day,Hour,Minute,Value (Times are PST for temperature in C)
2015,07,19,00,00,20.30
2015,07,19,00,01,20.30
2015,07,19,00,02,20.30
2015,07,19,00,03,20.30
2015,07,19,00,04,20.30
2015,07,19,00,05,20.30
2015,07,19,00,06,20.30
2015,07,19,00,07,20.30
2015,07,19,00,08,20.30
2015,07,19,00,09,20.20
2015,07,19,00,10,20.20
2015,07,19,00,11,20.10
2015,07,19,00,12,20.10
2015,07,19,00,13,20.10
2015,07,19,00,14,20.10
2015,07,19,00,15,20.10
2015,07,19,00,16,20.00
2015,07,19,00,17,20.00
2015,07,19,00,18,20.00
2015,07,19,00,19,20.00
2015,07,19,00,20,20.00
2015,07,19,00,21,20.00
2015,07,19,00,22,20.00
2015,07,19,00,23,20.00
2015,07,19,00,24,20.00
2015,07,19,00,25,20.00
2015,07,19,00,26,19.90
2015,07,19,00,27,19.90
2015,07,19,00,28,19.90
2015,07,19,00,29,19.90
2015,07,19,00,30,19.90
2015,07,19,00,31,19.90
2015,07,19,00,32,19.90
2015,07,19,00,33,19.80
2015,07,19,00,34,19.80
2015,07,19,00,35,19.80
2015,07,19,00,36,19.80
2015,07,19,00,37,19.70
2015,07,19,00,38,19.70
2015,07,19,00,39,19.70
2015,07,19,00,40,19.70
2015,07,19,00,41,19.70
2015,07,19,00,42,19.70
2015,07,19,00,43,19.70
2015,07,19,00,44,19.60
2015,07,19,00,45,19.60
2015,07,19,00,46,19.60
2015,07,19,00,47,19.60
2015,07,19,00,48,19.50
2015,07,19,00,49,19.50
2015,07,19,00,50,19.50
2015,07,19,00,51,19.50
2015,07,19,00,52,19.40
2015,07,19,00,53,19.40
2015,07,19,00,54,19.40
2015,07,19,00,55,19.40
2015,07,19,00,56,19.40
2015,07,19,00,57,19.40
2015,07,19,00,58,19.40
2015,07,19,00,59,19.40
2015,07,19,01,00,19.40
2015,07,19,01,01,19.40
2015,07,19,01,02,19.30
2015,07,19,01,03,19.30
2015,07,19,01,04,19.30
2015,07,19,01,05,19.30
2015,07,19,01,06,19.30
2015,07,19,01,07,19.30
2015,07,19,01,08,19.30
2015,07,19,01,09,19.30
2015,07,19,01,10,19.30
2015,07,19,01,11,19.30
2015,07,19,01,12,19.30
2015,07,19,01,13,19.30
2015,07,19,01,14,19.30
2015,07,19,01,15,19.30
2015,07,19,01,16,19.20
2015,07,19,01,17,19.20
2015,07,19,01,18,19.20
2015,07,19,01,19,19.20
2015,07,19,01,20,19.20
2015,07,19,01,21,19.10
2015,07,19,01,22,19.10
2015,07,19,01,23,19.10
2015,07,19,01,24,19.10
2015,07,19,01,25,19.10
2015,07,19,01,26,19.10
2015,07,19,01,27,19.10
2015,07,19,01,28,19.10
2015,07,19,01,29,19.10
2015,07,19,01,30,19.00
2015,07,19,01,31,19.00
2015,07,19,01,32,19.00
2015,07,19,01,33,18.90
2015,07,19,01,34,18.90
2015,07,19,01,35,18.90
2015,07,19,01,36,18.90
2015,07,19,01,37,18.90
2015,07,19,01,38,18.90
2015,07,19,01,39,18.90
2015,07,19,01,40,18.90
2015,07,19,01,41,18.90
2015,07,19,01,42,18.90
2015,07,19,01,43,18.90
2015,07,19,01,44,18.90
2015,07,19,01,45,18.90
2015,07,19,01,46,18.90
2015,07,19,01,47,18.90
2015,07,19,01,48,18.90
2015,07,19,01,49,18.90
2015,07,19,01,50,18.90
2015,07,19,01,51,18.90
2015,07,19,01,52,18.90
2015,07,19,01,53,18.90
2015,07,19,01,54,18.90
2015,07,19,01,55,18.90
2015,07,19,01,56,18.90
2015,07,19,01,57,18.90
2015,07,19,01,58,18.90
2015,07,19,01,59,18.80
2015,07,19,02,00,18.80
2015,07,19,02,01,18.80
2015,07,19,02,02,18.80
2015,07,19,02,03,18.80
2015,07,19,02,04,18.80
2015,07,19,02,05,18.80
2015,07,19,02,06,18.80
2015,07,19,02,07,18.70
2015,07,19,02,08,18.70
2015,07,19,02,09,18.70
2015,07,19,02,10,18.70
2015,07,19,02,11,18.70
2015,07,19,02,12,18.70
2015,07,19,02,13,18.60
2015,07,19,02,14,18.60
2015,07,19,02,15,18.60
2015,07,19,02,16,18.60
2015,07,19,02,17,18.60
2015,07,19,02,18,18.60
2015,07,19,02,19,18.60
2015,07,19,02,20,18.60
2015,07,19,02,21,18.60
2015,07,19,02,22,18.60
2015,07,19,02,23,18.60
2015,07,19,02,24,18.50
2015,07,19,02,25,18.50
2015,07,19,02,26,18.50
2015,07,19,02,27,18.50
2015,07,19,02,28,18.50
2015,07,19,02,29,18.50
2015,07,19,02,30,18.50
2015,07,19,02,31,18.50
2015,07,19,02,32,18.40
2015,07,19,02,33,18.40
2015,07,19,02,34,18.40
2015,07,19,02,35,18.40
2015,07,19,02,36,18.40
2015,07,19,02,37,18.40
2015,07,19,02,38,18.40
2015,07,19,02,39,18.40
2015,07,19,02,40,18.40
2015,07,19,02,41,18.40
2015,07,19,02,42,18.30
2015,07,19,02,43,18.30
2015,07,19,02,44,18.30
2015,07,19,02,45,18.30
2015,07,19,02,46,18.30
2015,07,19,02,47,18.30
2015,07,19,02,48,18.30
2015,07,19,02,49,18.30
2015,07,19,02,50,18.30
2015,07,19,02,51,18.30
2015,07,19,02,52,18.20
2015,07,19,02,53,18.20
2015,07,19,02,54,18.20
2015,07,19,02,55,18.20
2015,07,19,02,56,18.20
2015,07,19,02,57,18.20
2015,07,19,02,58,18.20
2015,07,19,02,59,18.20
2015,07,19,03,00,18.20
2015,07,19,03,01,18.10
2015,07,19,03,02,18.10
2015,07,19,03,03,18.10
2015,07,19,03,04,18.10
2015,07,19,03,05,18.00
2015,07,19,03,06,18.00
2015,07,19,03,07,18.00
2015,07,19,03,08,18.00
2015,07,19,03,09,17.90
2015,07,19,03,10,17.90
2015,07,19,03,11,17.90
2015,07,19,03,12,17.90
2015,07,19,03,13,17.90
2015,07,19,03,14,17.90
2015,07,19,03,15,17.90
2015,07,19,03,16,17.90
2015,07,19,03,17,17.90
2015,07,19,03,18,17.90
2015,07,19,03,19,17.90
2015,07,19,03,20,17.90
2015,07,19,03,21,17.90
2015,07,19,03,22,17.90
2015,07,19,03,23,17.90
2015,07,19,03,24,17.90
2015,07,19,03,25,17.90
2015,07,19,03,26,17.90
2015,07,19,03,27,17.90
2015,07,19,03,28,17.90
2015,07,19,03,29,17.80
2015,07,19,03,30,17.80
2015,07,19,03,31,17.80
2015,07,19,03,32,17.80
2015,07,19,03,33,17.80
2015,07,19,03,34,17.80
2015,07,19,03,35,17.80
2015,07,19,03,36,17.80
2015,07,19,03,37,17.80
2015,07,19,03,38,17.70
2015,07,19,03,39,17.70
2015,07,19,03,40,17.70
2015,07,19,03,41,17.70
2015,07,19,03,42,17.70
2015,07,19,03,43,17.70
2015,07,19,03,44,17.70
2015,07,19,03,45,17.70
2015,07,19,03,46,17.70
2015,07,19,03,47,17.70
2015,07,19,03,48,17.70
2015,07,19,03,49,17.70
2015,07,19,03,50,17.70
2015,07,19,03,51,17.60
2015,07,19,03,52,17.60
2015,07,19,03,53,17.60
2015,07,19,03,54,17.60
2015,07,19,03,55,17.60
2015,07,19,03,56,17.60
2015,07,19,03,57,17.50
2015,07,19,03,58,17.50
2015,07,19,03,59,17.50
2015,07,19,04,00,17.40
2015,07,19,04,01,17.40
2015,07,19,04,02,17.40
2015,07,19,04,03,17.40
2015,07,19,04,04,17.40
2015,07,19,04,05,17.40
2015,07,19,04,06,17.30
2015,07,19,04,07,17.30
2015,07,19,04,08,17.30
2015,07,19,04,09,17.30
2015,07,19,04,10,17.20
2015,07,19,04,11,17.20
2015,07,19,04,12,17.20
2015,07,19,04,13,17.20
2015,07,19,04,14,17.20
2015,07,19,04,15,17.20
2015,07,19,04,16,17.20
2015,07,19,04,17,17.20
2015,07,19,04,18,17.20
2015,07,19,04,19,17.10
2015,07,19,04,20,17.10
2015,07,19,04,21,17.10
2015,07,19,04,22,17.10
2015,07,19,04,23,17.10
2015,07,19,04,24,17.10
2015,07,19,04,25,17.00
2015,07,19,04,26,17.00
2015,07,19,04,27,17.00
2015,07,19,04,28,16.90
2015,07,19,04,29,16.90
2015,07,19,04,30,16.90
2015,07,19,04,31,16.90
2015,07,19,04,32,16.90
2015,07,19,04,33,16.90
2015,07,19,04,34,16.90
2015,07,19,04,35,16.90
2015,07,19,04,36,16.90
2015,07,19,04,37,16.90
2015,07,19,04,38,16.90
2015,07,19,04,39,16.90
2015,07,19,04,40,16.90
2015,07,19,04,41,16.90
2015,07,19,04,42,16.90
2015,07,19,04,43,16.90
2015,07,19,04,44,16.90
2015,07,19,04,45,16.90
2015,07,19,04,46,16.80
2015,07,19,04,47,16.80
2015,07,19,04,48,16.80
2015,07,19,04,49,16.80
2015,07,19,04,50,16.80
2015,07,19,04,51,16.80
2015,07,19,04,52,16.80
2015,07,19,04,53,16.80
2015,07,19,04,54,16.80
2015,07,19,04,55,16.80
2015,07,19,04,56,16.80
2015,07,19,04,57,16.70
2015,07,19,04,58,16.70
2015,07,19,04,59,16.70
2015,07,19,05,00,16.70
2015,07,19,05,01,16.70
2015,07,19,05,02,16.70
2015,07,19,05,03,16.60
2015,07,19,05,04,16.60
2015,07,19,05,05,16.60
2015,07,19,05,06,16.60
2015,07,19,05,07,16.60
2015,07,19,05,08,16.60
2015,07,19,05,09,16.60
2015,07,19,05,10,16.60
2015,07,19,05,11,16.60
2015,07,19,05,12,16.60
2015,07,19,05,13,16.60
2015,07,19,05,14,16.60
2015,07,19,05,15,16.60
2015,07,19,05,16,16.60
2015,07,19,05,17,16.60
2015,07,19,05,18,16.60
2015,07,19,05,19,16.60
2015,07,19,05,20,16.60
2015,07,19,05,21,16.60
2015,07,19,05,22,16.60
2015,07,19,05,23,16.70
2015,07,19,05,24,16.70
2015,07,19,05,25,16.70
2015,07,19,05,26,16.70
2015,07,19,05,27,16.70
2015,07,19,05,28,16.70
2015,07,19,05,29,16.70
2015,07,19,05,30,16.70
2015,07,19,05,31,16.70
2015,07,19,05,32,16.70
2015,07,19,05,33,16.70
2015,07,19,05,34,16.70
2015,07,19,05,35,16.80
2015,07,19,05,36,16.80
2015,07,19,05,37,16.80
2015,07,19,05,38,16.80
2015,07,19,05,39,16.80
2015,07,19,05,40,16.70
2015,07,19,05,41,16.70
2015,07,19,05,42,16.70
2015,07,19,05,43,16.70
2015,07,19,05,44,16.70
2015,07,19,05,45,16.70
2015,07,19,05,46,16.70
2015,07,19,05,47,16.70
2015,07,19,05,48,16.80
2015,07,19,05,49,16.80
2015,07,19,05,50,16.80
2015,07,19,05,51,16.80
2015,07,19,05,52,16.80
2015,07,19,05,53,16.70
2015,07,19,05,54,16.70
2015,07,19,05,55,16.70
2015,07,19,05,56,16.70
2015,07,19,05,57,16.70
2015,07,19,05,58,16.70
2015,07,19,05,59,16.70
2015,07,19,06,00,16.70
2015,07,19,06,01,16.70
2015,07,19,06,02,16.70
2015,07,19,06,03,16.70
2015,07,19,06,04,16.70
2015,07,19,06,05,16.80
2015,07,19,06,06,16.80
2015,07,19,06,07,16.80
2015,07,19,06,08,16.80
2015,07,19,06,09,16.90
2015,07,19,06,10,16.90
2015,07,19,06,11,16.90
2015,07,19,06,12,16.90
2015,07,19,06,13,17.00
2015,07,19,06,14,17.00
2015,07,19,06,15,17.00
2015,07,19,06,16,17.00
2015,07,19,06,17,17.10
2015,07,19,06,18,17.10
2015,07,19,06,19,17.10
2015,07,19,06,20,17.10
2015,07,19,06,21,17.10
2015,07,19,06,22,17.20
2015,07,19,06,23,17.20
2015,07,19,06,24,17.20
2015,07,19,06,25,17.30
2015,07,19,06,26,17.30
2015,07,19,06,27,17.30
2015,07,19,06,28,17.30
2015,07,19,06,29,17.40
2015,07,19,06,30,17.40
2015,07,19,06,31,17.40
2015,07,19,06,32,17.50
2015,07,19,06,33,17.60
2015,07,19,06,34,17.60
2015,07,19,06,35,17.60
2015,07,19,06,36,17.70
2015,07,19,06,37,17.70
2015,07,19,06,38,17.70
2015,07,19,06,39,17.70
2015,07,19,06,40,17.80
2015,07,19,06,41,17.80
2015,07,19,06,42,17.80
2015,07,19,06,43,17.80
2015,07,19,06,44,17.80
2015,07,19,06,45,17.90
2015,07,19,06,46,17.90
2015,07,19,06,47,17.90
2015,07,19,06,48,17.90
2015,07,19,06,49,18.00
2015,07,19,06,50,18.00
2015,07,19,06,51,18.10
2015,07,19,06,52,18.20
2015,07,19,06,53,18.30
2015,07,19,06,54,18.40
2015,07,19,06,55,18.40
2015,07,19,06,56,18.50
2015,07,19,06,57,18.60
2015,07,19,06,58,18.70
2015,07,19,06,59,18.80
2015,07,19,07,00,18.90
2015,07,19,07,01,19.00
2015,07,19,07,02,19.10
2015,07,19,07,03,19.20
2015,07,19,07,04,19.30
2015,07,19,07,05,19.40
2015,07,19,07,06,19.50
2015,07,19,07,07,19.60
2015,07,19,07,08,19.60
2015,07,19,07,09,19.70
2015,07,19,07,10,19.70
2015,07,19,07,11,19.80
2015,07,19,07,12,19.90
2015,07,19,07,13,19.90
2015,07,19,07,14,20.00
2015,07,19,07,15,20.10
2015,07,19,07,16,20.10
2015,07,19,07,17,20.20
2015,07,19,07,18,20.30
2015,07,19,07,19,20.30
2015,07,19,07,20,20.40
2015,07,19,07,21,20.40
2015,07,19,07,22,20.50
2015,07,19,07,23,20.60
2015,07,19,07,24,20.70
2015,07,19,07,25,20.80
2015,07,19,07,26,20.90
2015,07,19,07,27,21.00
2015,07,19,07,28,21.10
2015,07,19,07,29,21.10
2015,07,19,07,30,21.20
2015,07,19,07,31,21.20
2015,07,19,07,32,21.20
2015,07,19,07,33,21.30
2015,07,19,07,34,21.40
2015,07,19,07,35,21.40
2015,07,19,07,36,21.50
2015,07,19,07,37,21.60
2015,07,19,07,38,21.60
2015,07,19,07,39,21.70
2015,07,19,07,40,21.80
2015,07,19,07,41,21.90
2015,07,19,07,42,22.00
2015,07,19,07,43,22.00
2015,07,19,07,44,22.00
2015,07,19,07,45,22.00
2015,07,19,07,46,22.10
2015,07,19,07,47,22.00
2015,07,19,07,48,22.00
2015,07,19,07,49,22.00
2015,07,19,07,50,22.00
2015,07,19,07,51,22.00
2015,07,19,07,52,22.10
2015,07,19,07,53,22.10
2015,07,19,07,54,22.10
2015,07,19,07,55,22.20
2015,07,19,07,56,22.20
2015,07,19,07,57,22.20
2015,07,19,07,58,22.20
2015,07,19,07,59,22.20
2015,07,19,08,00,22.20
2015,07,19,08,01,22.10
2015,07,19,08,02,22.00
2015,07,19,08,03,22.00
2015,07,19,08,04,21.90
2015,07,19,08,05,21.90
2015,07,19,08,06,21.80
2015,07,19,08,07,21.80
2015,07,19,08,08,21.80
2015,07,19,08,09,21.80
2015,07,19,08,10,21.80
2015,07,19,08,11,21.80
2015,07,19,08,12,21.80
2015,07,19,08,13,21.80
2015,07,19,08,14,21.80
2015,07,19,08,15,21.80
2015,07,19,08,16,21.80
2015,07,19,08,17,21.80
2015,07,19,08,18,21.90
2015,07,19,08,19,21.90
2015,07,19,08,20,21.90
2015,07,19,08,21,22.00
2015,07,19,08,22,22.00
2015,07,19,08,23,22.10
2015,07,19,08,24,22.10
2015,07,19,08,25,22.20
2015,07,19,08,26,22.10
2015,07,19,08,27,22.10
2015,07,19,08,28,22.00
2015,07,19,08,29,22.00
2015,07,19,08,30,21.90
2015,07,19,08,31,21.90
2015,07,19,08,32,21.90
2015,07,19,08,33,21.90
2015,07,19,08,34,21.90
2015,07,19,08,35,21.90
2015,07,19,08,36,22.00
2015,07,19,08,37,22.00
2015,07,19,08,38,22.10
2015,07,19,08,39,22.10
2015,07,19,08,40,22.10
2015,07,19,08,41,22.20
2015,07,19,08,42,22.20
2015,07,19,08,43,22.30
2015,07,19,08,44,22.40
2015,07,19,08,45,22.50
2015,07,19,08,46,22.50
2015,07,19,08,47,22.60
2015,07,19,08,48,22.70
2015,07,19,08,49,22.70
2015,07,19,08,50,22.80
2015,07,19,08,51,22.80
2015,07,19,08,52,22.80
2015,07,19,08,53,22.80
2015,07,19,08,54,22.80
2015,07,19,08,55,22.80
2015,07,19,08,56,22.70
2015,07,19,08,57,22.70
2015,07,19,08,58,22.60
2015,07,19,08,59,22.50
2015,07,19,09,00,22.40
2015,07,19,09,01,22.30
2015,07,19,09,02,22.10
2015,07,19,09,03,21.90
2015,07,19,09,04,21.80
2015,07,19,09,05,21.70
2015,07,19,09,06,21.60
2015,07,19,09,07,21.60
2015,07,19,09,08,21.70
2015,07,19,09,09,21.70
2015,07,19,09,10,21.80
2015,07,19,09,11,21.90
2015,07,19,09,12,22.00
2015,07,19,09,13,22.10
2015,07,19,09,14,22.10
2015,07,19,09,15,22.20
2015,07,19,09,16,22.20
2015,07,19,09,17,22.30
2015,07,19,09,18,22.30
2015,07,19,09,19,22.20
2015,07,19,09,20,22.10
2015,07,19,09,21,22.00
2015,07,19,09,22,21.80
2015,07,19,09,23,21.80
2015,07,19,09,24,21.70
2015,07,19,09,25,21.70
2015,07,19,09,26,21.70
2015,07,19,09,27,21.70
2015,07,19,09,28,21.70
2015,07,19,09,29,21.70
2015,07,19,09,30,21.80
2015,07,19,09,31,21.80
2015,07,19,09,32,21.80
2015,07,19,09,33,21.80
2015,07,19,09,34,21.80
2015,07,19,09,35,21.90
2015,07,19,09,36,21.90
2015,07,19,09,37,22.00
2015,07,19,09,38,22.10
2015,07,19,09,39,22.20
2015,07,19,09,40,22.30
2015,07,19,09,41,22.40
2015,07,19,09,42,22.50
2015,07,19,09,43,22.40
2015,07,19,09,44,22.40
2015,07,19,09,45,22.40
2015,07,19,09,46,22.40
2015,07,19,09,47,22.40
2015,07,19,09,48,22.40
2015,07,19,09,49,22.30
2015,07,19,09,50,22.30
2015,07,19,09,51,22.30
2015,07,19,09,52,22.40
2015,07,19,09,53,22.50
2015,07,19,09,54,22.50
2015,07,19,09,55,22.50
2015,07,19,09,56,22.50
2015,07,19,09,57,22.60
2015,07,19,09,58,22.60
2015,07,19,09,59,22.60
2015,07,19,10,00,22.60
2015,07,19,10,01,22.60
2015,07,19,10,02,22.60
2015,07,19,10,03,22.60
2015,07,19,10,04,22.60
2015,07,19,10,05,22.60
2015,07,19,10,06,22.70
2015,07,19,10,07,22.70
2015,07,19,10,08,22.60
2015,07,19,10,09,22.60
2015,07,19,10,10,22.40
2015,07,19,10,11,22.30
2015,07,19,10,12,22.30
2015,07,19,10,13,22.20
2015,07,19,10,14,22.20
2015,07,19,10,15,22.20
2015,07,19,10,16,22.30
2015,07,19,10,17,22.30
2015,07,19,10,18,22.30
2015,07,19,10,19,22.30
2015,07,19,10,20,22.30
2015,07,19,10,21,22.30
2015,07,19,10,22,22.30
2015,07,19,10,23,22.30
2015,07,19,10,24,22.30
2015,07,19,10,25,22.30
2015,07,19,10,26,22.30
2015,07,19,10,27,22.30
2015,07,19,10,28,22.30
2015,07,19,10,29,22.40
2015,07,19,10,30,22.30
2015,07,19,10,31,22.30
2015,07,19,10,32,22.40
2015,07,19,10,33,22.40
2015,07,19,10,34,22.50
2015,07,19,10,35,22.50
2015,07,19,10,36,22.50
2015,07,19,10,37,22.50
2015,07,19,10,38,22.50
2015,07,19,10,39,22.40
2015,07,19,10,40,22.50
2015,07,19,10,41,22.50
2015,07,19,10,42,22.40
2015,07,19,10,43,22.40
2015,07,19,10,44,22.40
2015,07,19,10,45,22.50
2015,07,19,10,46,22.60
2015,07,19,10,47,22.80
2015,07,19,10,48,22.80
2015,07,19,10,49,22.90
2015,07,19,10,50,22.90
2015,07,19,10,51,22.90
2015,07,19,10,52,23.00
2015,07,19,10,53,23.10
2015,07,19,10,54,23.00
2015,07,19,10,55,22.90
2015,07,19,10,56,23.00
2015,07,19,10,57,23.00
2015,07,19,10,58,23.00
2015,07,19,10,59,23.00
2015,07,19,11,00,23.10
2015,07,19,11,01,23.00
2015,07,19,11,02,23.10
2015,07,19,11,03,23.10
2015,07,19,11,04,23.10
2015,07,19,11,05,23.20
2015,07,19,11,06,23.30
2015,07,19,11,07,23.30
2015,07,19,11,08,23.40
2015,07,19,11,09,23.50
2015,07,19,11,10,23.60
2015,07,19,11,11,23.60
2015,07,19,11,12,23.70
2015,07,19,11,13,23.60
2015,07,19,11,14,23.60
2015,07,19,11,15,23.60
2015,07,19,11,16,23.70
2015,07,19,11,17,23.80
2015,07,19,11,18,23.80
2015,07,19,11,19,23.80
2015,07,19,11,20,23.80
2015,07,19,11,21,23.80
2015,07,19,11,22,23.80
2015,07,19,11,23,23.80
2015,07,19,11,24,23.80
2015,07,19,11,25,23.80
2015,07,19,11,26,23.80
2015,07,19,11,27,23.80
2015,07,19,11,28,23.80
2015,07,19,11,29,23.80
2015,07,19,11,30,23.80
2015,07,19,11,31,23.80
2015,07,19,11,32,23.70
2015,07,19,11,33,23.80
2015,07,19,11,34,23.80
2015,07,19,11,35,23.90
2015,07,19,11,36,23.90
2015,07,19,11,37,24.00
2015,07,19,11,38,24.00
2015,07,19,11,39,24.00
2015,07,19,11,40,24.00
2015,07,19,11,41,24.00
2015,07,19,11,42,24.00
2015,07,19,11,43,23.90
2015,07,19,11,44,23.90
2015,07,19,11,45,23.90
2015,07,19,11,46,23.80
2015,07,19,11,47,23.70
2015,07,19,11,48,23.50
2015,07,19,11,49,23.40
2015,07,19,11,50,23.40
2015,07,19,11,51,23.40
2015,07,19,11,52,23.30
2015,07,19,11,53,23.30
2015,07,19,11,54,23.20
2015,07,19,11,55,23.20
2015,07,19,11,56,23.10
2015,07,19,11,57,23.00
2015,07,19,11,58,23.00
2015,07,19,11,59,23.00
2015,07,19,12,00,22.90
2015,07,19,12,01,22.90
2015,07,19,12,02,22.80
2015,07,19,12,03,22.90
2015,07,19,12,04,22.90
2015,07,19,12,05,23.00
2015,07,19,12,06,23.00
2015,07,19,12,07,23.00
2015,07,19,12,08,23.10
2015,07,19,12,09,23.10
2015,07,19,12,10,23.10
2015,07,19,12,11,23.20
2015,07,19,12,12,23.10
2015,07,19,12,13,23.20
2015,07,19,12,14,23.10
2015,07,19,12,15,23.10
2015,07,19,12,16,23.10
2015,07,19,12,17,23.10
2015,07,19,12,18,23.30
2015,07,19,12,19,23.40
2015,07,19,12,20,23.50
2015,07,19,12,21,23.50
2015,07,19,12,22,23.60
2015,07,19,12,23,23.60
2015,07,19,12,24,23.60
2015,07,19,12,25,23.70
2015,07,19,12,26,23.80
2015,07,19,12,27,23.90
2015,07,19,12,28,24.00
2015,07,19,12,29,24.10
2015,07,19,12,30,24.10
2015,07,19,12,31,24.10
2015,07,19,12,32,24.10
2015,07,19,12,33,24.20
2015,07,19,12,34,24.30
2015,07,19,12,35,24.40
2015,07,19,12,36,24.40
2015,07,19,12,37,24.50
2015,07,19,12,38,24.60
2015,07,19,12,39,24.60
2015,07,19,12,40,24.50
2015,07,19,12,41,24.50
2015,07,19,12,42,24.50
2015,07,19,12,43,24.60
2015,07,19,12,44,24.60
2015,07,19,12,45,24.60
2015,07,19,12,46,24.60
2015,07,19,12,47,24.60
2015,07,19,12,48,24.50
2015,07,19,12,49,24.40
2015,07,19,12,50,24.30
2015,07,19,12,51,24.30
2015,07,19,12,52,24.30
2015,07,19,12,53,24.30
2015,07,19,12,54,24.40
2015,07,19,12,55,24.40
2015,07,19,12,56,24.40
2015,07,19,12,57,24.40
2015,07,19,12,58,24.40
2015,07,19,12,59,24.40
2015,07,19,13,00,24.40
2015,07,19,13,01,24.30
2015,07,19,13,02,24.30
2015,07,19,13,03,24.30
2015,07,19,13,04,24.30
2015,07,19,13,05,24.40
2015,07,19,13,06,24.40
2015,07,19,13,07,24.40
2015,07,19,13,08,24.40
2015,07,19,13,09,24.40
2015,07,19,13,10,24.50
2015,07,19,13,11,24.50
2015,07,19,13,12,24.50
2015,07,19,13,13,24.40
2015,07,19,13,14,24.30
2015,07,19,13,15,24.20
2015,07,19,13,16,24.20
2015,07,19,13,17,24.20
2015,07,19,13,18,24.30
2015,07,19,13,19,24.40
2015,07,19,13,20,24.50
2015,07,19,13,21,24.60
2015,07,19,13,22,24.80
2015,07,19,13,23,24.80
2015,07,19,13,24,24.80
2015,07,19,13,25,24.90
2015,07,19,13,26,25.00
2015,07,19,13,27,25.20
2015,07,19,13,28,25.40
2015,07,19,13,29,25.60
2015,07,19,13,30,25.80
2015,07,19,13,31,25.90
2015,07,19,13,32,25.90
2015,07,19,13,33,25.90
2015,07,19,13,34,25.90
2015,07,19,13,35,25.80
2015,07,19,13,36,25.70
2015,07,19,13,37,25.70
2015,07,19,13,38,25.80
2015,07,19,13,39,25.80
2015,07,19,13,40,25.90
2015,07,19,13,41,26.00
2015,07,19,13,42,26.10
2015,07,19,13,43,26.20
2015,07,19,13,44,26.30
2015,07,19,13,45,26.30
2015,07,19,13,46,26.30
2015,07,19,13,47,26.40
2015,07,19,13,48,26.50
2015,07,19,13,49,26.60
2015,07,19,13,50,26.80
2015,07,19,13,51,26.80
2015,07,19,13,52,26.80
2015,07,19,13,53,26.90
2015,07,19,13,54,26.90
2015,07,19,13,55,26.90
2015,07,19,13,56,26.80
2015,07,19,13,57,26.70
2015,07,19,13,58,26.50
2015,07,19,13,59,26.40
2015,07,19,14,00,26.40
2015,07,19,14,01,26.30
2015,07,19,14,02,26.30
2015,07,19,14,03,26.30
2015,07,19,14,04,26.40
2015,07,19,14,05,26.40
2015,07,19,14,06,26.40
2015,07,19,14,07,26.40
2015,07,19,14,08,26.40
2015,07,19,14,09,26.40
2015,07,19,14,10,26.40
2015,07,19,14,11,26.40
2015,07,19,14,12,26.30
2015,07,19,14,13,26.30
2015,07,19,14,14,26.30
2015,07,19,14,15,26.10
2015,07,19,14,16,26.00
2015,07,19,14,17,25.90
2015,07,19,14,18,25.90
2015,07,19,14,19,25.90
2015,07,19,14,20,26.00
2015,07,19,14,21,26.10
2015,07,19,14,22,26.20
2015,07,19,14,23,26.30
2015,07,19,14,24,26.40
2015,07,19,14,25,26.50
2015,07,19,14,26,26.50
2015,07,19,14,27,26.60
2015,07,19,14,28,26.60
2015,07,19,14,29,26.70
2015,07,19,14,30,26.70
2015,07,19,14,31,26.70
2015,07,19,14,32,26.70
2015,07,19,14,33,26.70
2015,07,19,14,34,26.60
2015,07,19,14,35,26.50
2015,07,19,14,36,26.50
2015,07,19,14,37,26.40
2015,07,19,14,38,26.30
2015,07,19,14,39,26.40
2015,07,19,14,40,26.40
2015,07,19,14,41,26.40
2015,07,19,14,42,26.40
2015,07,19,14,43,26.30
2015,07,19,14,44,26.30
2015,07,19,14,45,26.20
2015,07,19,14,46,26.20
2015,07,19,14,47,26.20
2015,07,19,14,48,26.20
2015,07,19,14,49,26.30
2015,07,19,14,50,26.30
2015,07,19,14,51,26.30
2015,07,19,14,52,26.30
2015,07,19,14,53,26.40
2015,07,19,14,54,26.50
2015,07,19,14,55,26.60
2015,07,19,14,56,26.70
2015,07,19,14,57,26.80
2015,07,19,14,58,26.90
2015,07,19,14,59,26.90
2015,07,19,15,00,27.00
2015,07,19,15,01,27.10
2015,07,19,15,02,27.20
2015,07,19,15,03,27.30
2015,07,19,15,04,27.40
2015,07,19,15,05,27.50
2015,07,19,15,06,27.60
2015,07,19,15,07,27.70
2015,07,19,15,08,27.80
2015,07,19,15,09,27.90
2015,07,19,15,10,27.90
2015,07,19,15,11,28.00
2015,07,19,15,12,28.10
2015,07,19,15,13,28.20
2015,07,19,15,14,28.30
2015,07,19,15,15,28.40
2015,07,19,15,16,28.50
2015,07,19,15,17,28.60
2015,07,19,15,18,28.60
2015,07,19,15,19,28.70
2015,07,19,15,20,28.70
2015,07,19,15,21,28.70
2015,07,19,15,22,28.80
2015,07,19,15,23,28.80
2015,07,19,15,24,28.70
2015,07,19,15,25,28.70
2015,07,19,15,26,28.60
2015,07,19,15,27,28.60
2015,07,19,15,28,28.50
2015,07,19,15,29,28.50
2015,07,19,15,30,28.50
2015,07,19,15,31,28.60
2015,07,19,15,32,28.70
2015,07,19,15,33,28.80
2015,07,19,15,34,28.90
2015,07,19,15,35,29.00
2015,07,19,15,36,29.00
2015,07,19,15,37,29.10
2015,07,19,15,38,29.10
2015,07,19,15,39,29.20
2015,07,19,15,40,29.30
2015,07,19,15,41,29.50
2015,07,19,15,42,29.50
2015,07,19,15,43,29.50
2015,07,19,15,44,29.40
2015,07,19,15,45,29.30
2015,07,19,15,46,29.30
2015,07,19,15,47,29.30
2015,07,19,15,48,29.30
2015,07,19,15,49,29.30
2015,07,19,15,50,29.40
2015,07,19,15,51,29.40
2015,07,19,15,52,29.40
2015,07,19,15,53,29.40
2015,07,19,15,54,29.30
2015,07,19,15,55,29.30
2015,07,19,15,56,29.30
2015,07,19,15,57,29.40
2015,07,19,15,58,29.40
2015,07,19,15,59,29.40
2015,07,19,16,00,29.40
2015,07,19,16,01,29.40
2015,07,19,16,02,29.50
2015,07,19,16,03,29.50
2015,07,19,16,04,29.50
2015,07,19,16,05,29.50
2015,07,19,16,06,29.50
2015,07,19,16,07,29.50
2015,07,19,16,08,29.40
2015,07,19,16,09,29.40
2015,07,19,16,10,29.40
2015,07,19,16,11,29.50
2015,07,19,16,12,29.60
2015,07,19,16,13,29.60
2015,07,19,16,14,29.70
2015,07,19,16,15,29.70
2015,07,19,16,16,29.80
2015,07,19,16,17,29.80
2015,07,19,16,18,29.80
2015,07,19,16,19,29.70
2015,07,19,16,20,29.70
2015,07,19,16,21,29.80
2015,07,19,16,22,29.80
2015,07,19,16,23,29.80
2015,07,19,16,24,29.80
2015,07,19,16,25,29.90
2015,07,19,16,26,29.90
2015,07,19,16,27,29.90
2015,07,19,16,28,29.90
2015,07,19,16,29,29.70
2015,07,19,16,30,29.70
2015,07,19,16,31,29.60
2015,07,19,16,32,29.60
2015,07,19,16,33,29.60
2015,07,19,16,34,29.50
2015,07,19,16,35,29.50
2015,07,19,16,36,29.60
2015,07,19,16,37,29.60
2015,07,19,16,38,29.70
2015,07,19,16,39,29.70
2015,07,19,16,40,29.70
2015,07,19,16,41,29.70
2015,07,19,16,42,29.70
2015,07,19,16,43,29.60
2015,07,19,16,44,29.60
2015,07,19,16,45,29.40
2015,07,19,16,46,29.30
2015,07,19,16,47,29.20
2015,07,19,16,48,29.20
2015,07,19,16,49,29.20
2015,07,19,16,50,29.20
2015,07,19,16,51,29.20
2015,07,19,16,52,29.20
2015,07,19,16,53,29.20
2015,07,19,16,54,29.20
2015,07,19,16,55,29.20
2015,07,19,16,56,29.30
2015,07,19,16,57,29.40
2015,07,19,16,58,29.40
2015,07,19,16,59,29.50
2015,07,19,17,00,29.60
2015,07,19,17,01,29.60
2015,07,19,17,02,29.60
2015,07,19,17,03,29.70
2015,07,19,17,04,29.70
2015,07,19,17,05,29.80
2015,07,19,17,06,29.70
2015,07,19,17,07,29.70
2015,07,19,17,08,29.70
2015,07,19,17,09,29.70
2015,07,19,17,10,29.80
2015,07,19,17,11,29.80
2015,07,19,17,12,29.90
2015,07,19,17,13,30.00
2015,07,19,17,14,30.00
2015,07,19,17,15,29.90
2015,07,19,17,16,29.90
2015,07,19,17,17,29.90
2015,07,19,17,18,29.90
2015,07,19,17,19,29.90